Location: Baix
(44.7118°N, 4.7648°E)
Time: 01:35:01
(UTC+00:00)

AQUA - Pass Details

Date: 07 August 2020
Orbit: 700 x 704 km, 98.2° (Epoch: 19 September)

Event Time Altitude Azimuth Distance (km) Brightness Sun altitude
Rises 02:16:13 0° 7° (N) 3,103 8.1 -20.1°
Reaches altitude 10° 02:18:33 10° 1° (N) 2,179 7.1 -19.9°
Maximum altitude 02:23:04 43° 290° (WNW) 981 4.4 -19.4°
Enters shadow 02:24:19 35° 251° (WSW) 1,121 4.4 -19.2°
